Location: Unspecified
(19.4326°N, 99.1332°W)
Time: 10:19:35
(UTC-06:00)

ISS - Visible Passes

Search period start: 23 February 2017 00:00
Search period end: 05 March 2017 00:00
Orbit: 399 x 408 km, 51.6° (Epoch: 24 February)

Date Brightness Start Highest point End Pass type
(mag) Time Alt. Az. Time Alt. Az. Time Alt. Az.
26 Feb -1.2 05:58:49 10° S 06:01:38 27° SE 06:04:28 10° ENE visible
27 Feb -0.1 05:08:13 10° SE 05:09:13 11° ESE 05:10:14 10° ESE visible
28 Feb -3.5 05:51:26 31° SW 05:52:50 74° NW 05:56:06 10° NE visible
01 Mar -0.6 05:02:10 19° ENE 05:02:10 19° ENE 05:03:23 10° ENE visible
02 Mar -1.4 05:45:17 17° NNW 05:45:17 17° NNW 05:46:41 10° N visible
